Terminal Aerodrome Forecast
Issued by NWS Pueblo, CO

Home | Current Version | Previous Version | Text Only | Print | Product List | Glossary On
Versions: 1 2 3 4 5 6 7 8 9 10 11 12 13 14 15 16 17 18 19 20 21 22 23 24 25 26 27 28 29 30 31 32 33 34 35 36 37
000
FTUS45 KPUB 251720
TAFCOS
TAF
KCOS 251720Z 2518/2618 18008KT P6SM SCT070 BKN120
     FM252000 01010KT P6SM VCTS SCT040 BKN060CB
     FM260100 36010KT P6SM FEW030 SCT050 BKN100
     FM260500 VRB05KT P6SM SCT070 SCT120=

USA.gov is the U.S. government's official web portal to all federal, state and local government web resources and services.